OH6LSL Weather Reports


time (UTC)temp
C
wind
direction
speed
KPH
gust
KPH
rain 1hr
cm
rain 24hr
cm
rain mn
cm
humidity
%
barometer
mb
20260508121433 12 241 1.6 9.7 0.00 0.00 0.00 26 1023.1
20260508120504 12 176 1.6 8.0 0.00 0.00 0.00 27 1023.1
20260508115444 12 244 1.6 11.3 0.00 0.00 0.00 27 1023.1
20260508114446 12 222 3.2 8.0 0.00 0.00 0.00 26 1023.3
20260508113438 12 256 1.6 9.7 0.00 0.00 0.00 24 1023.3
20260508112439 12 285 1.6 17.7 0.00 0.00 0.00 27 1023.4
20260508111441 12 308 9.7 19.3 0.00 0.00 0.00 29 1023.3
20260508110434 12 305 6.4 20.9 0.00 0.00 0.00 27 1023.3
20260508105436 12 246 1.6 11.3 0.00 0.00 0.00 25 1023.3
20260508104438 12 277 0.0 11.3 0.00 0.00 0.00 28 1023.2
20260508103446 12 264 4.8 11.3 0.00 0.00 0.00 26 1023.2
20260508102511 12 234 0.0 12.9 0.00 0.00 0.00 28 1023.3
20260508101451 12 250 0.0 11.3 0.00 0.00 0.00 26 1023.4
20260508100435 12 241 0.0 9.7 0.00 0.00 0.00 25 1023.4
20260508095457 11 292 1.6 11.3 0.00 0.00 0.00 28 1023.4
20260508094500 11 230 1.6 11.3 0.00 0.00 0.00 27 1023.5
20260508093448 11 229 0.0 12.9 0.00 0.00 0.00 27 1023.5
20260508092431 11 232 0.0 9.7 0.00 0.00 0.00 28 1023.5
20260508091452 11 234 1.6 8.0 0.00 0.00 0.00 28 1023.5
20260508090441 11 239 1.6 16.1 0.00 0.00 0.00 29 1023.5
20260508085440 11 220 1.6 9.7 0.00 0.00 0.00 32 1023.4
20260508084439 10 237 0.0 9.7 0.00 0.00 0.00 35 1023.3
20260508083436 11 128 0.0 11.3 0.00 0.00 0.00 35 1023.3
20260508082434 10 229 1.6 8.0 0.00 0.00 0.00 36 1023.1
20260508081436 10 223 0.0 11.3 0.00 0.00 0.00 40 1023.1
20260508080447 10 141 0.0 11.3 0.00 0.00 0.00 43 1023.1
20260508075509 10 186 0.0 4.8 0.00 0.00 0.00 42 1023.0
20260508074447 10 178 0.0 1.6 0.00 0.00 0.00 45 1022.8
20260508073440 9 162 0.0 8.0 0.00 0.00 0.00 45 1022.8
20260508072441 9 202 0.0 4.8 0.00 0.00 0.00 48 1022.7
20260508071458 8 193 0.0 3.2 0.00 0.00 0.00 47 1022.6
20260508070450 8 176 0.0 3.2 0.00 0.00 0.00 49 1022.6
20260508065451 8 203 0.0 1.6 0.00 0.00 0.00 49 1022.4
20260508064451 7 205 0.0 6.4 0.00 0.00 0.00 46 1022.2
20260508063442 7 251 0.0 0.0 0.00 0.00 0.00 39 1022.2
20260508062442 7 251 0.0 0.0 0.00 0.00 0.00 34 1022.1
20260508061443 7 251 0.0 3.2 0.00 0.00 0.00 28 1021.8
20260508060434 6 251 0.0 0.0 0.00 0.00 0.00 24 1021.8
20260508055435 6 251 0.0 0.0 0.00 0.00 0.00 15 1021.7
20260508054436 6 251 1.6 3.2 0.00 0.00 0.00 8 1021.5
20260508053446 6 251 0.0 0.0 0.00 0.00 0.00 12 1021.5
20260508052444 5 251 0.0 0.0 0.00 0.00 0.00 12 1021.2
20260508051504 5 251 0.0 0.0 0.00 0.00 0.00 14 1021.1
20260508050431 5 251 0.0 0.0 0.00 0.00 0.00 16 1021.1
20260508045433 4 251 0.0 1.6 0.00 0.00 0.00 16 1021.0
20260508044432 4 251 0.0 1.6 0.00 0.00 0.00 17 1020.9
20260508043458 3 251 0.0 0.0 0.00 0.00 0.00 18 1020.9
20260508042437 3 251 0.0 0.0 0.00 0.00 0.00 19 1020.7
20260508041438 2 251 0.0 0.0 0.00 0.00 0.00 20 1020.5
20260508040449 2 251 0.0 0.0 0.00 0.00 0.00 21 1020.5
20260508035449 1 251 0.0 0.0 0.00 0.00 0.00 22 1020.5
20260508034450 1 251 0.0 0.0 0.00 0.00 0.00 24 1020.3
20260508033437 0 251 0.0 0.0 0.00 0.00 0.00 25 1020.3
20260508032439 0 251 0.0 0.0 0.00 0.00 0.00 25 1020.1
20260508031440 0 251 0.0 0.0 0.00 0.00 0.00 25 1020.0
20260508030450 0 251 0.0 0.0 0.00 0.00 0.00 25 1020.0
20260508025451 0 251 0.0 0.0 0.00 0.00 0.00 25 1019.9
20260508024510 0 251 0.0 0.0 0.00 0.00 0.00 27 1019.7
20260508023438 0 251 0.0 0.0 0.00 0.00 0.00 27 1019.7
20260508022439 0 251 0.0 0.0 0.00 0.00 0.00 29 1019.6
20260508021500 -1 251 0.0 0.0 0.00 0.00 0.00 29 1019.5
20260508020512 -1 251 0.0 0.0 0.00 0.00 0.00 29 1019.5
20260508015454 -1 251 0.0 0.0 0.00 0.00 0.00 30 1019.4
20260508014455 -1 251 0.0 0.0 0.00 0.00 0.00 30 1019.1
20260508013443 -1 251 0.0 0.0 0.00 0.00 0.00 30 1019.1
20260508012445 0 251 0.0 0.0 0.00 0.00 0.00 29 1019.0
20260508011507 0 251 0.0 0.0 0.00 0.00 0.00 29 1018.9
20260508010446 0 251 0.0 0.0 0.00 0.00 0.00 29 1018.9
20260508005447 0 251 0.0 0.0 0.00 0.00 0.00 29 1018.8
20260508004448 0 251 0.0 0.0 0.00 0.00 0.00 30 1018.7
20260508003437 0 251 0.0 0.0 0.00 0.00 0.00 31 1018.7
20260508002437 0 251 0.0 0.0 0.00 0.00 0.00 31 1018.5
20260508001438 0 251 0.0 0.0 0.00 0.00 0.00 31 1018.4
20260508000450 0 251 0.0 0.0 0.00 0.00 0.00 32 1018.4
20260507235448 0 251 0.0 0.0 0.00 0.00 0.00 32 1018.2
20260507234450 0 251 0.0 0.0 0.00 0.00 0.00 33 1018.0
20260507233444 0 253 0.0 0.0 0.00 0.00 0.00 34 1018.0
20260507232445 0 253 0.0 0.0 0.00 0.00 0.00 35 1017.9
20260507231447 0 253 0.0 0.0 0.00 0.00 0.00 35 1017.8
20260507230433 0 253 0.0 0.0 0.00 0.00 0.00 36 1017.8
20260507225433 0 253 0.0 0.0 0.00 0.00 0.00 36 1017.7
20260507224434 0 253 0.0 0.0 0.00 0.00 0.00 37 1017.5
20260507223504 0 253 0.0 0.0 0.00 0.00 0.00 39 1017.5
20260507222444 0 253 0.0 0.0 0.00 0.00 0.00 40 1017.5
20260507221511 0 253 0.0 0.0 0.00 0.00 0.00 41 1017.4
20260507220442 0 253 0.0 0.0 0.00 0.00 0.00 43 1017.4
20260507215447 0 253 0.0 0.0 0.00 0.00 0.00 44 1017.2
20260507214508 0 253 0.0 0.0 0.00 0.00 0.00 46 1017.0
20260507213438 0 253 0.0 0.0 0.00 0.00 0.00 46 1017.0
20260507212440 0 253 0.0 0.0 0.00 0.00 0.00 47 1016.9
20260507211440 0 253 0.0 0.0 0.00 0.00 0.00 48 1016.8
20260507210450 -1 253 0.0 0.0 0.00 0.00 0.00 48 1016.8
20260507205447 0 253 0.0 0.0 0.00 0.00 0.00 49 1016.5
20260507204447 0 253 0.0 0.0 0.00 0.00 0.00 49 1016.4
20260507203436 0 253 0.0 0.0 0.00 0.00 0.00 50 1016.4
20260507202432 0 253 0.0 0.0 0.00 0.00 0.00 52 1016.2
20260507201450 0 253 0.0 0.0 0.00 0.00 0.00 53 1016.1
20260507200444 0 253 0.0 0.0 0.00 0.00 0.00 56 1016.1
20260507195444 0 253 0.0 0.0 0.00 0.00 0.00 55 1015.9
20260507194443 1 253 0.0 0.0 0.00 0.00 0.00 58 1015.9
20260507193435 1 253 0.0 0.0 0.00 0.00 0.00 60 1015.9
20260507192434 1 253 0.0 0.0 0.00 0.00 0.00 61 1015.8
20260507191435 1 253 0.0 0.0 0.00 0.00 0.00 62 1015.6
20260507190446 2 253 0.0 0.0 0.00 0.00 0.00 61 1015.6
20260507185451 2 253 0.0 0.0 0.00 0.00 0.00 63 1015.4
20260507184432 2 253 0.0 0.0 0.00 0.00 0.00 63 1015.4
20260507183441 3 253 0.0 0.0 0.00 0.00 0.00 64 1015.4
20260507182441 3 253 0.0 0.0 0.00 0.00 0.00 63 1015.5
20260507181443 3 253 0.0 0.0 0.00 0.00 0.00 62 1015.3
20260507180433 4 253 0.0 0.0 0.00 0.00 0.00 62 1015.3
20260507175457 4 253 0.0 4.8 0.00 0.00 0.00 62 1015.2
20260507174437 4 254 0.0 3.2 0.00 0.00 0.00 62 1015.1
20260507173507 4 256 0.0 3.2 0.00 0.00 0.00 63 1015.1
20260507172448 4 256 0.0 0.0 0.00 0.00 0.00 65 1015.0
20260507171447 4 257 0.0 4.8 0.00 0.00 0.00 64 1015.0
20260507170456 4 220 0.0 4.8 0.00 0.00 0.00 61 1015.0
20260507165433 5 222 0.0 0.0 0.00 0.00 0.00 60 1014.7
20260507164433 5 222 0.0 3.2 0.00 0.00 0.00 60 1014.6
20260507163446 5 222 0.0 3.2 0.00 0.00 0.00 60 1014.6
20260507162444 5 205 0.0 8.0 0.00 0.00 0.00 61 1014.4
20260507161442 5 251 1.6 9.7 0.00 0.00 0.00 62 1014.3
20260507160433 5 244 1.6 9.7 0.00 0.00 0.00 62 1014.3
20260507155432 5 213 1.6 9.7 0.00 0.00 0.00 58 1014.1
20260507154435 6 222 1.6 12.9 0.00 0.00 0.00 55 1013.8
20260507153446 6 240 1.6 11.3 0.00 0.00 0.00 54 1013.8
20260507152446 7 176 0.0 16.1 0.00 0.00 0.00 52 1013.8
20260507151446 7 292 3.2 11.3 0.00 0.00 0.00 50 1013.6
20260507150438 7 241 0.0 9.7 0.00 0.00 0.00 49 1013.6
20260507145441 6 308 0.0 8.0 0.00 0.00 0.00 52 1013.5
20260507144444 6 360 0.0 8.0 0.00 0.00 0.00 55 1013.5
20260507143433 6 340 1.6 9.7 0.00 0.00 0.00 54 1013.5
20260507142434 6 340 4.8 12.9 0.00 0.00 0.00 54 1013.4
20260507141454 6 360 1.6 11.3 0.00 0.00 0.00 54 1013.4
20260507140505 6 1 4.8 12.9 0.00 0.00 0.00 55 1013.4
20260507135503 6 320 3.2 12.9 0.00 0.00 0.00 54 1013.2
20260507134442 6 312 3.2 17.7 0.00 0.00 0.00 53 1013.2
20260507133435 6 332 4.8 12.9 0.00 0.00 0.00 51 1013.2
20260507132436 6 360 6.4 19.3 0.00 0.00 0.00 59 1013.2
20260507131435 5 357 14.5 22.5 0.00 0.00 0.00 55 1013.1
20260507130445 5 6 6.4 16.1 0.00 0.00 0.00 59 1013.1
20260507125447 5 349 9.7 17.7 0.00 0.00 0.00 62 1013.0
20260507124450 5 7 11.3 22.5 0.00 0.00 0.00 60 1013.0
20260507123501 5 360 9.7 20.9 0.00 0.00 0.00 59 1013.0
20260507122500 6 360 14.5 19.3 0.00 0.00 0.00 59 1012.9